Regional Weather Roundup
Issued by NWS

Home | Current Version | Previous Version | Graphics & Text | Print | Product List | Glossary On
Versions: 1 2 3 4 5 6 7 8 9 10 11 12 13 14 15 16 17 18 19 20 21 22 23 24 25 26 27 28 29 30 31 32 33 34 35 36 37 38 39 40 41 42 43 44 45 46 47 48 49 50
000
ASUS45 KCYS 111710
RWRWY

WYOMING REGIONAL WEATHER ROUNDUP
NATIONAL WEATHER SERVICE CHEYENNE WY
1100 AM MDT FRI JUL 11 2014

NOTE:  "FAIR" INDICATES FEW OR NO CLOUDS BELOW 12,000 FEET
WITH NO SIGNIFICANT WEATHER AND/OR OBSTRUCTIONS TO VISIBILITY.

WYZ001-111800-
YELLOWSTONE NATIONAL PARK

CITY           SKY/WX    TMP DP  RH WIND       PRES   REMARKS
LK YELLOWSTONE   N/A     62  51  67 VRB5      30.34F
W YELLOWSTONE  NOT AVBL

$$
WYZ002>013-054>058-071-098>099-111800-
NORTHERN WYOMING

CITY           SKY/WX    TMP DP  RH WIND       PRES   REMARKS
JACKSON        SUNNY     72  52  49 CALM      30.23F
CODY           MOSUNNY  N/A N/A N/A N17G23    30.17R
GREYBULL       SUNNY     85  52  32 N14G22    30.05S
WORLAND        MOSUNNY   81  58  45 VRB5      30.06R
SHERIDAN       MOSUNNY   80  56  43 N9        30.11R
BUFFALO        MOSUNNY   75  55  49 N22       30.15R
GILLETTE       MOSUNNY   85  56  37 VRB7      30.08R
HULETT         FAIR      77  63  61 MISG      30.12
NEWCASTLE      FAIR      84  52  32 SW5       30.07

$$
WYZ014>020-022>026-101>103-111800-
CENTRAL WYOMING

CITY           SKY/WX    TMP DP  RH WIND       PRES   REMARKS
BIG PINEY      CLOUDY    68  53  58 W6        30.29S
PINEDALE       CLOUDY    64  52  63 CALM      30.30S
DUBOIS         FAIR      72  39  30 CALM      30.25S
LANDER         PTSUNNY   77  54  44 N6        30.14S
RIVERTON       PTSUNNY   76  55  48 E6        30.15S
CASPER         PTSUNNY   75  55  49 S15       30.15R
DOUGLAS        CLOUDY    75  58  55 W8        30.13R

$$
WYZ021-027>030-104>119-111800-
SOUTHERN WYOMING

CITY           SKY/WX    TMP DP  RH WIND       PRES   REMARKS
EVANSTON       CLOUDY    61  55  81 S6        30.30R
KEMMERER       CLOUDY    61  52  72 CALM      30.30S
FORT BRIDGER   CLOUDY    65  54  67 S6        30.32R
ROCK SPRINGS   CLOUDY    70  52  52 W5        30.26S
DIXON          FAIR      75  52  44 S5        30.28S
RAWLINS        CLOUDY    68  52  56 SW6       30.27S
SARATOGA       PTSUNNY   70  52  52 NW5       30.29S
LARAMIE        MOSUNNY   72  53  51 VRB7      30.29R
CHEYENNE       SUNNY     81  53  37 NE7       30.20S
TORRINGTON     PTSUNNY   78  62  57 CALM      30.07R

$$



USA.gov is the U.S. government's official web portal to all federal, state and local government web resources and services.